Find Starlink 30352

NORAD ID: 57736 Int'l Des: 2023-131 Owner: SPXS Country: US Constellation: starlink operational
LEOCIRCULAR

当前视图

正在加载3D地球...

About Starlink 30352

Starlink 30352 (NORAD 57736) is a starlink constellation satellite (v2 mini) launched Sep 1, 2023 by SPXS of US. It operates in LEO, CIRCULAR orbit with a mass of 730.00 kg.

关于 Starlink 30352

正在加载描述...

即将过境

Passes for default location (London). Set your location on the main map for personalized predictions.

高度历史

Loading altitude history...

两行轨道根数

1 57736U 23131E 26167.19636608 -.00006127 00000-0 -21313-3 0 9990
2 57736 42.9947 343.6378 0001511 271.8854 88.1824 15.27603724154897
Epoch: Jun 16, 2026 • Age: 5 hours

当前状态

高度 482.5 km
速度 7.63 km/s
星下点 15.26°N, 89.16°E
发射日期 Sep 1, 2023
运行时间 2.7 years
类型 internet

技术详情

分类 Payload
质量 730.00 kg
干质量 700.00 kg
总质量 730.00 kg
长度 0.30 m
直径 4.10 m
跨度 29.00 m
形状 Box + pan
制造商 SPXS
平台类型 Starlink V2M
阶段状态 In Orbit
所有者/国家 SPXS/US

Most Searched